Theta_e
325 320 316 316 317 318 312 308 295 299 293 291 289 289 291 298 299 296 296 298 296 300 303 302 300 302 299 299 303 306 307 300 303 292 293 307 326 329 329 330 335 346 346 348 349 350 351 351 352 353 353 353 353 353 353 352 351 351 350 349 349 349 349 349 350 350 350 350 350 350 350 349 349 348 349 349 349 349 349 348 348 346 346 346 346 347 346 345 344 342 341 340 338 337 335 335 335
321 317 318 319 316 315 306 303 296 291 289 287 290 289 294 297 297 294 295 297 299 301 301 301 301 300 302 302 304 309 308 311 312 311 319 326 328 328 331 332 335 346 346 348 349 350 350 349 350 352 353 353 353 353 352 352 351 351 350 349 349 348 348 347 348 349 350 350 350 349 349 349 349 348 347 348 348 348 349 348 347 346 346 346 344 346 346 344 342 341 340 339 337 335 334 332 334
322 320 320 317 315 311 309 302 295 287 285 283 288 290 295 295 294 296 298 299 301 302 302 301 301 302 302 303 303 301 300 316 317 319 320 327 321 322 330 333 332 346 347 347 349 349 350 349 348 352 352 352 352 352 352 352 351 350 350 349 349 348 347 347 347 348 349 349 349 349 349 348 347 347 347 347 347 348 348 348 347 346 345 346 345 345 344 342 341 340 339 338 336 334 332 331 334
323 322 319 313 308 306 300 297 293 288 286 285 287 293 294 293 295 298 299 301 301 299 302 302 299 303 302 300 301 303 304 312 319 319 318 322 322 327 330 332 333 342 346 347 348 348 349 348 348 352 353 352 352 352 353 352 351 351 350 349 348 348 347 347 347 348 348 348 349 349 348 347 346 346 346 347 347 347 346 347 347 346 346 344 345 344 343 342 341 339 338 336 335 333 330 330 334
319 323 320 312 308 303 299 297 291 287 287 286 286 293 294 295 296 298 300 300 299 298 300 302 298 303 305 304 305 299 301 307 319 323 323 324 328 330 332 334 335 340 344 346 347 349 348 346 349 350 353 352 352 351 352 352 351 351 350 349 348 348 348 348 347 348 349 348 348 348 348 348 347 346 345 346 346 346 346 346 347 346 344 344 344 344 343 342 340 339 337 336 335 332 329 330 333
316 316 320 312 304 307 299 289 291 288 292 290 289 292 293 296 297 297 297 298 300 299 300 299 298 300 304 306 309 305 314 304 319 322 323 324 328 332 333 334 333 336 339 344 347 348 348 345 348 350 353 352 352 351 352 352 352 351 350 349 348 348 347 348 348 348 349 348 347 348 348 348 347 346 346 345 344 345 345 345 346 345 345 344 344 343 343 342 340 339 337 336 335 332 328 329 333
314 311 312 308 307 307 296 289 289 289 293 293 291 292 295 296 298 297 297 298 299 299 300 301 304 303 301 306 309 316 319 320 319 323 325 327 328 331 334 334 333 338 346 347 347 347 346 345 350 353 351 351 351 351 350 350 350 350 350 350 349 348 347 347 347 348 348 347 347 348 347 347 347 346 346 345 345 345 345 345 345 344 344 344 344 343 343 342 340 339 337 336 335 332 328 329 331
318 307 308 299 300 294 292 291 291 289 294 295 295 295 296 297 296 296 296 295 297 296 298 299 298 298 299 305 303 316 321 324 324 327 329 328 329 331 333 334 336 340 345 346 345 344 345 344 349 350 350 351 351 350 350 349 349 350 350 349 349 348 347 347 347 347 347 347 347 346 346 347 346 346 345 345 345 345 345 345 344 343 343 343 342 342 342 341 340 339 337 336 334 332 328 327 329
314 309 307 299 296 293 289 290 291 294 294 296 297 301 304 299 298 297 295 297 298 297 298 300 298 296 299 302 301 311 315 321 326 327 327 328 329 331 333 332 333 334 341 344 344 343 343 342 346 349 349 351 350 350 350 349 349 348 348 348 349 348 348 347 346 347 347 347 346 346 346 346 346 346 346 345 345 345 345 344 343 343 343 343 342 341 340 340 339 338 337 335 333 332 328 327 328
306 305 299 298 296 292 289 291 288 292 293 296 295 298 299 299 299 296 296 297 297 298 299 299 299 298 301 300 301 302 307 314 320 322 326 327 330 331 331 331 331 333 335 340 342 342 341 341 339 342 346 349 351 350 349 349 349 348 348 347 348 348 349 349 346 346 347 346 347 346 346 346 345 345 345 345 345 344 345 344 343 343 343 342 341 340 339 338 338 337 336 335 333 331 328 326 327
301 304 303 294 289 289 289 290 291 294 294 297 297 299 299 299 299 298 298 298 298 298 299 299 299 299 299 298 299 307 306 306 311 314 320 327 329 330 330 330 330 331 332 332 337 340 340 339 337 338 343 345 347 349 349 349 348 348 348 346 347 346 346 347 347 347 346 346 345 346 346 346 346 345 345 344 344 344 344 344 343 342 342 342 340 339 338 337 336 336 335 334 333 330 327 325 325
296 297 296 291 291 291 289 290 292 293 295 295 296 299 299 300 299 297 297 298 298 297 298 300 298 299 298 297 299 301 304 303 305 310 315 326 328 329 329 328 330 330 330 331 332 334 338 338 339 338 336 338 342 345 346 347 348 347 347 347 347 346 347 346 346 347 346 346 346 345 344 345 344 345 345 344 344 344 344 342 342 342 341 342 340 339 338 336 336 335 334 333 331 329 326 324 323
299 296 291 290 288 289 291 290 291 292 293 295 294 299 298 298 298 298 297 297 296 297 299 301 301 299 296 298 300 303 301 302 305 309 315 324 326 327 327 328 329 329 329 328 330 331 332 335 339 342 335 331 332 333 338 342 344 347 347 347 347 347 347 348 347 347 346 345 346 346 345 346 345 345 345 344 344 343 343 342 342 341 341 342 341 339 337 336 335 335 333 332 330 328 325 322 321
302 299 293 292 290 291 290 291 291 290 291 295 297 299 300 298 299 298 297 297 297 297 300 303 300 300 298 298 300 299 300 302 305 308 312 323 324 323 321 320 320 323 322 321 320 326 330 331 334 337 339 342 341 337 332 337 342 345 345 345 345 345 346 347 347 347 346 346 345 345 343 344 345 345 344 344 344 343 342 341 342 341 341 341 340 338 337 335 334 334 332 331 330 327 323 320 319
301 301 295 292 288 287 293 289 292 288 291 295 298 298 299 301 299 297 299 296 299 301 302 302 303 299 293 296 296 299 300 303 305 308 314 319 321 320 318 316 316 315 315 317 317 318 322 328 331 332 335 336 337 337 338 333 334 339 341 341 342 342 343 342 343 342 342 344 344 341 339 338 336 337 338 340 340 338 337 336 341 342 341 341 339 337 336 335 334 333 333 331 329 326 324 321 319
304 300 294 292 286 287 289 292 291 290 292 295 298 296 297 300 300 298 301 299 300 303 300 299 301 298 299 298 300 300 302 304 306 308 313 315 317 318 314 313 313 313 312 313 314 315 316 317 319 327 331 332 333 336 337 337 331 332 336 337 339 340 340 339 337 335 334 334 334 333 330 331 329 330 327 332 333 337 334 333 336 338 341 340 339 338 336 335 334 334 332 332 329 326 324 321 320
303 296 291 286 288 288 290 292 290 289 293 296 299 299 297 298 301 301 302 300 299 298 299 299 299 301 298 299 301 303 305 308 310 310 311 309 309 306 308 309 310 311 313 312 313 314 315 316 318 318 320 328 332 334 335 337 336 327 330 329 332 336 337 336 335 327 324 323 326 322 325 335 336 333 328 334 326 330 323 327 334 337 340 340 339 337 336 335 334 333 333 332 329 325 323 321 320
301 293 290 288 288 290 294 294 293 294 294 295 298 299 297 296 299 301 301 299 298 298 299 299 301 300 301 302 302 304 306 306 307 307 306 304 305 304 306 306 307 307 309 310 312 314 314 315 315 317 317 319 327 333 336 340 335 335 340 336 335 334 330 327 329 332 331 333 322 326 334 336 337 336 333 332 332 327 324 325 330 336 339 337 338 337 336 335 334 334 333 332 330 325 320 307 308
298 294 289 290 291 295 297 296 296 295 295 296 297 296 297 297 297 299 297 296 296 297 297 298 297 298 300 301 302 303 305 305 306 306 305 304 303 304 304 305 306 307 308 308 310 313 313 313 314 315 317 317 319 327 332 335 337 340 340 338 337 331 331 332 332 331 335 337 334 336 334 337 336 336 334 333 333 324 326 322 327 333 335 334 336 337 337 336 335 334 333 332 330 326 314 311 308
300 294 291 291 295 296 297 298 297 297 297 297 297 298 297 299 299 303 297 294 295 295 295 296 296 297 298 300 301 302 303 304 304 304 304 304 304 303 303 304 306 306 307 308 309 313 312 312 312 313 315 317 317 322 329 330 335 336 338 338 339 337 334 334 332 333 332 336 336 336 334 334 333 333 327 326 331 332 325 320 325 329 330 329 331 332 333 335 335 335 334 331 325 317 314 312 309
300 292 291 294 295 294 297 298 298 297 297 296 297 297 296 299 299 298 296 296 295 296 297 296 297 297 298 300 300 301 302 302 303 303 303 304 304 304 303 305 305 306 306 309 310 312 312 312 311 312 314 316 316 318 324 328 329 333 335 337 337 335 334 335 335 335 337 336 335 334 336 335 334 331 331 332 333 332 330 329 329 330 331 331 327 329 328 327 324 323 323 323 322 319 315 314 314
298 295 295 296 294 294 298 298 297 298 296 296 295 295 297 300 299 297 297 293 292 295 297 297 298 298 299 299 300 300 301 301 301 302 302 303 303 303 304 304 306 307 309 309 310 312 312 312 311 312 313 315 316 317 323 327 333 331 332 334 336 337 335 334 335 335 336 335 333 333 333 333 333 333 332 330 329 331 330 328 330 329 330 331 331 329 326 326 323 322 322 323 324 321 317 313 311
294 296 297 296 297 296 298 299 298 296 298 296 295 298 299 297 297 297 296 295 295 298 298 297 298 299 299 300 300 299 300 300 301 301 301 302 303 303 303 303 305 306 306 309 312 313 312 311 311 311 312 315 315 318 322 329 330 329 329 330 331 331 330 329 329 331 331 332 332 331 333 332 331 330 329 330 331 330 327 326 327 329 329 327 327 329 327 325 325 324 325 326 323 320 316 313 311
296 295 296 297 297 299 298 299 297 296 296 298 298 299 297 296 296 297 295 296 297 297 297 297 298 298 300 299 299 299 299 300 301 302 302 303 303 303 303 303 304 306 307 309 310 311 310 310 312 313 317 315 315 320 327 329 328 326 325 324 326 324 324 324 325 327 328 328 328 329 329 330 329 326 326 327 329 329 328 328 328 329 328 328 327 328 328 325 324 324 325 324 323 320 317 313 312
296 296 297 298 298 298 297 296 296 297 297 297 298 298 296 296 296 297 295 296 296 297 297 297 297 297 297 298 298 298 298 299 301 302 302 302 303 303 303 303 304 306 307 308 309 310 311 313 314 319 321 322 322 326 326 327 326 324 324 323 322 321 322 321 322 323 325 326 327 327 327 328 327 325 324 324 324 323 323 324 325 325 327 327 327 326 326 324 323 322 321 320 320 318 314 314 315
298 297 297 298 298 299 296 297 297 297 298 299 297 295 295 296 298 296 296 296 297 297 297 297 297 296 296 296 297 297 297 298 299 300 300 300 301 301 300 302 304 306 306 307 308 309 311 313 318 320 321 321 324 324 323 323 323 321 321 321 320 319 319 318 318 318 320 322 323 325 325 325 325 323 321 321 321 320 321 321 322 322 323 325 326 324 324 323 322 321 320 320 319 317 316 315 316
298 297 297 297 297 298 298 298 297 296 298 296 296 296 295 296 297 292 296 296 297 296 296 296 296 296 296 296 296 297 297 297 298 298 299 299 299 299 299 302 304 305 306 306 307 309 311 316 317 318 320 319 321 321 320 319 319 318 317 317 316 316 315 314 313 313 314 315 316 317 320 322 322 320 319 318 318 318 318 319 320 320 320 321 322 322 322 321 321 319 318 318 317 316 315 313 313
298 298 296 296 297 296 297 296 297 296 297 296 296 295 296 294 296 293 295 296 297 296 295 295 295 294 295 296 296 296 297 297 297 297 297 297 297 297 299 302 303 305 305 305 307 309 313 315 315 315 316 317 318 317 316 315 314 313 313 312 311 311 311 310 310 310 311 313 314 314 313 315 320 319 318 317 316 315 316 316 317 318 319 319 319 318 318 318 318 318 317 317 316 315 314 313 312
298 298 294 293 295 297 296 297 297 297 297 296 297 295 292 293 292 293 296 296 296 295 295 294 294 294 295 295 295 295 296 296 296 296 296 297 297 298 300 303 303 303 305 305 307 310 311 313 313 311 312 312 313 312 311 311 310 310 309 309 308 309 308 307 307 307 308 310 312 312 311 311 311 314 315 315 313 312 311 311 311 312 314 316 317 315 314 314 312 312 313 314 314 313 312 311 313
299 297 294 294 292 292 297 298 297 296 297 295 296 287 287 291 294 294 296 296 295 294 294 294 294 294 294 294 295 295 295 295 295 295 295 296 297 298 301 303 303 303 303 306 308 309 310 311 311 310 309 308 308 308 308 307 307 307 307 307 307 306 305 304 304 304 305 306 308 310 311 309 309 309 310 309 309 308 308 307 308 308 309 309 310 312 311 309 307 306 307 309 306 306 305 305 305
294 294 294 289 288 287 294 296 295 296 296 295 296 287 287 290 293 294 295 296 295 293 293 293 294 294 293 294 294 294 294 295 295 296 296 296 297 299 301 302 302 303 305 306 307 308 308 308 308 307 307 307 307 306 305 305 305 305 304 304 304 304 303 302 302 302 302 303 304 305 307 308 308 308 308 307 306 306 305 305 305 305 306 306 306 306 307 307 304 303 303 303 302 301 301 300 301
293 290 285 287 288 287 293 296 296 295 295 295 295 287 290 293 292 294 295 295 295 294 293 293 293 293 294 294 294 294 294 295 295 296 296 296 297 298 300 301 302 303 305 306 307 308 307 307 307 305 306 306 304 304 304 304 303 303 303 303 301 301 301 300 300 299 299 300 300 301 302 303 305 305 305 304 303 302 302 301 301 302 302 301 301 301 303 304 304 300 299 299 298 297 298 297 298
291 290 285 288 287 288 291 296 295 294 293 295 295 288 290 291 292 293 294 295 294 293 293 293 293 294 294 294 294 294 294 293 294 295 295 295 296 297 299 300 301 304 306 306 307 306 306 306 306 305 304 304 304 303 303 302 301 300 300 299 299 298 298 297 297 297 297 297 297 297 299 300 301 302 302 301 300 299 299 299 299 300 300 299 299 299 299 299 302 301 298 298 297 295 295 295 295
286 289 289 288 289 288 288 292 295 294 295 291 292 290 290 291 292 294 294 295 294 293 293 294 294 293 294 293 294 294 294 293 293 294 295 295 296 298 300 301 302 304 305 306 307 306 305 305 305 304 303 303 303 302 301 300 300 299 298 297 297 296 295 295 295 295 295 295 295 295 296 297 298 298 298 298 297 297 296 295 296 296 296 296 296 296 296 297 298 300 297 297 296 294 293 292 293
285 288 288 289 290 291 291 291 292 294 293 292 290 290 291 293 292 293 294 295 294 294 294 294 293 293 293 293 293 294 294 292 292 294 295 296 296 297 299 300 302 303 305 306 307 307 306 304 304 303 303 302 302 301 300 299 298 297 297 296 295 294 293 294 294 293 293 293 293 294 294 294 294 295 295 295 294 293 292 292 292 292 293 293 292 292 292 293 295 297 297 295 295 293 292 291 291
291 290 288 288 289 288 291 292 295 295 292 291 290 289 292 293 293 293 293 294 294 294 293 292 293 293 293 293 293 294 293 292 293 294 295 295 295 296 298 300 301 303 303 305 305 305 304 304 304 305 304 303 303 301 300 299 297 296 294 294 293 293 292 292 291 291 292 292 292 293 293 293 293 293 292 293 292 292 291 291 290 291 291 291 290 290 290 290 290 292 294 294 291 291 291 290 290
293 293 291 289 289 289 292 293 294 294 293 291 291 291 291 292 293 294 294 294 293 292 293 292 293 292 292 292 293 293 292 292 293 294 294 295 295 296 297 298 300 302 302 303 303 303 303 302 302 301 301 301 301 299 298 296 294 293 292 291 291 290 290 290 290 290 291 291 291 292 292 292 292 292 292 291 291 291 290 290 290 289 290 290 289 289 289 289 289 289 290 292 290 288 288 289 289
292 291 289 288 290 289 292 295 294 293 293 287 290 290 291 293 293 293 293 292 292 293 293 293 293 292 293 292 292 292 291 292 293 293 294 294 294 295 296 297 299 300 300 301 301 302 301 300 299 298 299 298 297 296 295 293 293 292 290 289 289 288 288 288 288 289 290 291 290 290 291 291 291 291 291 291 290 290 289 289 289 289 289 288 289 289 289 290 288 288 288 288 288 287 286 287 288
292 290 289 288 288 291 293 293 293 293 293 289 289 290 292 294 295 294 292 293 294 295 295 295 294 292 292 292 292 291 291 291 292 293 293 293 294 294 294 296 297 299 300 300 300 300 299 298 296 296 295 294 294 294 293 291 291 291 290 288 289 288 288 289 289 289 289 289 289 289 290 290 290 289 290 290 290 289 288 288 288 288 288 288 287 287 287 287 287 287 287 286 286 286 286 288 287
290 289 288 287 287 290 285 290 292 293 292 288 289 290 293 295 295 296 295 294 293 294 295 294 294 293 292 293 293 291 290 290 291 292 292 293 293 293 293 294 295 297 297 298 299 298 298 296 295 294 293 293 292 292 292 291 290 290 289 289 288 288 287 289 288 288 288 288 288 288 288 288 289 288 288 288 288 288 288 287 287 287 287 287 287 286 286 286 286 286 286 287 286 284 284 285 287
288 290 288 288 289 290 290 290 291 291 292 292 290 289 291 293 294 295 293 292 292 293 293 293 292 293 293 293 293 292 291 291 291 291 292 292 292 292 293 294 294 295 295 296 297 297 296 294 294 293 292 292 292 292 291 290 289 289 289 288 288 287 287 287 287 286 287 287 287 287 287 287 288 287 287 287 287 287 287 287 287 287 287 286 286 286 285 285 285 285 286 285 285 283 283 283 284
288 289 292 291 291 291 291 292 292 284 285 289 290 282 282 286 290 293 290 291 290 290 291 291 292 291 292 292 292 292 292 292 292 292 292 292 292 292 292 293 293 292 293 294 296 296 295 294 293 292 291 291 291 290 290 290 289 288 287 286 285 284 284 284 284 284 285 285 285 286 287 287 287 287 287 287 286 286 286 286 286 286 285 286 286 285 285 285 284 284 284 284 284 284 283 282 281
287 288 292 293 293 292 292 290 290 283 283 289 291 284 283 286 291 291 288 289 291 289 290 291 290 291 291 292 291 292 291 290 291 292 292 292 292 292 292 292 292 292 292 293 294 295 294 293 292 291 291 290 290 290 290 290 288 287 286 285 285 285 284 284 285 285 285 285 286 286 286 286 286 286 286 286 286 286 285 285 285 285 285 285 285 285 284 284 284 284 284 284 284 285 283 281 281
285 289 294 293 292 290 290 290 289 285 286 289 290 286 284 286 290 294 293 290 290 290 289 290 290 290 290 291 291 291 291 291 291 291 292 292 292 292 292 292 291 291 291 292 293 293 293 292 291 291 291 290 290 290 290 290 288 287 286 286 286 285 285 285 285 285 285 286 285 285 285 286 286 286 286 285 285 285 285 284 284 284 284 284 285 284 283 283 284 284 284 283 283 283 282 281 280
287 293 293 292 292 291 290 290 287 284 286 283 285 288 284 283 285 288 290 288 289 289 290 290 290 290 290 290 291 291 291 291 291 291 291 291 291 291 291 290 291 291 291 291 292 291 291 291 290 290 290 290 289 289 289 288 288 288 287 287 286 286 286 286 286 286 285 285 285 285 285 285 285 285 285 285 284 285 285 284 283 283 283 283 284 283 283 283 283 282 282 282 282 282 282 282 281
293 293 293 292 291 290 290 285 288 283 283 281 284 288 283 286 287 287 287 287 290 291 292 292 291 291 291 290 290 290 290 290 291 291 291 291 291 290 290 290 290 290 290 290 289 290 289 289 289 289 288 289 289 289 289 288 288 288 287 286 286 286 286 286 286 285 285 285 284 284 284 284 284 284 284 284 284 284 283 283 283 283 282 283 283 282 282 282 282 282 281 281 281 281 281 282 281
294 292 291 289 287 285 282 282 282 283 280 283 286 288 288 283 284 288 287 288 292 293 291 290 290 290 291 291 290 290 289 289 289 290 290 290 288 288 288 289 289 288 288 288 289 289 288 288 288 288 288 288 288 288 288 288 287 287 287 287 286 286 286 286 285 284 284 284 284 283 283 283 283 283 283 283 283 283 283 283 282 282 282 282 282 281 281 281 281 281 281 280 280 280 280 280 281
295 288 284 286 285 280 281 280 282 278 280 283 288 288 289 282 280 285 292 290 290 293 292 291 289 290 290 290 291 290 289 289 289 289 287 287 286 287 287 287 288 288 287 288 287 287 287 287 288 287 287 287 287 288 288 287 287 286 287 287 286 286 286 286 285 284 284 284 283 283 283 283 282 282 282 282 281 281 281 281 281 281 281 281 281 281 281 281 281 281 281 280 279 279 280 281 279
292 289 288 284 279 277 275 277 275 276 280 281 283 286 282 285 289 288 290 292 294 292 294 292 290 290 290 290 290 290 290 289 288 288 286 286 286 286 287 286 286 286 287 287 287 287 286 287 287 287 286 287 287 287 287 287 287 286 287 287 287 287 286 286 285 284 284 284 283 283 282 282 281 281 281 281 280 280 281 281 281 280 280 281 280 280 280 280 280 280 280 279 278 278 278 279 278
289 289 285 282 277 275 272 272 274 276 278 282 282 285 284 283 288 294 296 298 294 289 290 292 291 290 290 290 290 290 289 289 288 287 286 286 286 286 286 286 286 287 287 287 286 286 286 287 287 287 286 287 287 287 287 287 286 286 286 287 287 287 286 286 285 285 284 284 284 283 282 281 281 281 281 281 281 281 281 281 281 281 280 280 280 280 279 279 279 279 279 278 278 277 278 277 277
290 289 290 286 283 275 272 276 277 277 276 278 280 282 278 281 286 289 288 286 287 288 289 290 292 291 290 290 289 289 288 287 287 286 286 286 286 286 286 286 286 287 286 286 286 286 286 286 286 286 286 286 287 287 287 286 286 286 286 286 286 286 286 286 285 285 284 283 283 282 282 281 281 281 281 281 281 281 281 281 280 280 280 279 279 279 280 279 278 279 279 278 279 278 277 278 277
286 288 288 283 286 284 285 278 277 275 275 274 276 280 281 286 288 288 286 287 288 287 289 289 289 289 288 288 288 288 288 287 287 286 286 285 285 285 285 286 286 286 286 286 285 285 285 286 286 286 286 286 286 286 286 286 286 286 286 285 285 286 285 285 284 284 283 283 283 282 282 281 281 281 281 281 280 280 280 280 280 279 279 279 279 278 278 278 277 278 277 277 277 279 277 276 276
286 289 285 289 288 290 284 279 279 278 276 280 277 281 281 286 290 288 288 288 289 287 287 288 287 288 288 288 288 288 288 287 286 286 286 285 285 285 285 285 286 286 286 286 286 285 285 285 285 285 285 285 286 286 286 285 285 285 285 284 284 284 284 284 284 283 283 283 282 282 282 281 281 281 281 280 280 279 279 279 279 279 278 278 277 277 277 276 276 277 277 276 276 276 277 276 276
287 283 288 290 290 288 284 279 276 274 276 279 280 282 281 282 283 285 286 286 287 287 286 287 287 287 287 288 288 288 288 287 287 286 286 286 286 285 285 285 285 286 286 285 285 284 285 285 285 285 285 285 285 285 285 285 285 284 284 284 283 284 283 283 283 283 282 282 281 281 281 281 281 282 282 281 279 279 278 279 278 277 277 277 277 276 276 276 276 276 276 276 275 275 275 275 276
290 287 291 291 282 281 283 280 279 276 277 277 277 280 283 284 287 282 285 286 288 287 286 285 286 287 287 288 287 287 287 287 286 286 286 285 285 285 285 285 285 285 285 285 284 284 284 284 285 285 285 285 285 285 284 284 284 285 284 284 283 283 283 283 283 282 282 282 281 281 281 281 280 280 280 279 278 277 277 277 277 276 276 276 276 276 275 275 275 275 276 275 275 275 274 274 274
290 291 290 289 284 278 281 284 277 279 275 273 278 276 282 285 287 287 289 289 290 289 286 287 288 288 288 288 288 287 287 287 287 287 287 286 286 285 285 285 284 284 284 284 283 284 283 284 284 284 284 284 284 284 284 284 284 284 283 283 283 283 283 283 282 282 281 281 281 281 280 279 279 279 278 277 277 277 276 276 276 276 276 275 275 275 275 274 275 274 274 275 274 274 273 273 274
285 285 284 288 285 286 284 283 282 279 275 273 276 279 281 283 290 290 292 291 291 290 289 289 289 289 289 289 288 288 288 288 288 288 287 286 286 285 285 284 284 283 283 283 283 283 284 284 284 284 284 283 284 283 284 283 283 283 283 283 282 282 282 282 281 281 281 280 280 280 279 279 278 278 277 277 277 276 276 276 276 276 275 275 274 274 274 274 274 273 273 274 273 273 273 273 273
290 289 287 290 285 283 281 281 284 281 280 279 275 280 286 285 288 292 293 293 292 290 291 290 289 289 289 289 289 289 288 288 288 288 287 286 286 285 284 283 282 283 282 283 283 283 283 283 283 283 283 283 283 283 284 283 283 283 282 282 282 282 282 281 281 280 280 280 279 279 278 278 277 277 277 277 276 276 276 276 275 275 274 274 273 274 273 273 273 273 272 274 273 272 272 272 272
Wind_Speed
8 8 7 7 2 0 2 2 1 3 5 3 3 2 1 1 2 4 3 2 4 2 1 1 4 5 5 6 12 8 6 2 1 4 2 1 0 4 4 4 4 8 9 7 5 6 6 8 9 9 12 13 14 13 13 12 11 11 11 10 10 10 11 11 11 11 11 11 12 13 13 13 13 12 11 12 12 12 12 13 12 13 14 14 15 17 17 17 17 17 17 17 17 16 15 14 14
6 6 7 5 3 1 1 1 2 1 5 6 1 2 1 1 6 4 5 4 1 0 1 1 1 4 8 10 7 10 10 7 4 3 2 2 0 3 5 5 2 10 8 7 6 6 6 7 8 9 11 13 12 12 12 11 11 10 10 10 10 10 10 10 12 11 11 11 12 13 13 13 12 12 11 11 11 11 11 13 12 12 12 14 14 16 17 17 17 17 17 16 16 16 15 14 14
6 6 7 5 2 2 1 3 1 2 5 5 1 1 1 9 6 2 4 3 1 1 1 2 3 4 6 7 10 4 1 4 6 4 3 2 2 3 7 4 1 8 10 6 6 7 7 7 9 9 11 12 12 13 12 11 11 10 10 9 10 10 9 9 9 11 11 11 12 12 12 12 11 11 11 10 11 11 11 12 12 11 12 12 13 15 17 17 16 16 16 16 15 15 14 14 14
4 2 1 2 1 2 2 2 3 4 6 5 3 2 4 5 5 5 3 3 1 2 1 2 3 1 6 7 4 5 3 2 1 1 1 2 1 6 7 6 3 5 7 6 6 5 6 8 11 10 8 10 12 12 11 11 11 10 10 9 9 9 9 9 10 9 10 10 10 11 12 11 11 10 10 10 10 10 11 12 12 12 12 12 14 16 16 16 16 15 15 15 14 14 14 13 13
3 3 3 1 2 2 1 0 3 4 4 3 4 0 5 5 5 5 2 1 3 4 2 1 3 3 4 4 2 2 1 2 3 6 2 1 3 4 6 7 3 4 7 7 7 7 6 11 10 10 10 11 11 11 11 10 10 10 9 8 9 9 7 8 9 9 9 9 10 10 11 11 11 11 10 9 10 10 11 11 12 12 13 13 13 15 15 15 15 15 14 14 13 13 13 13 13
3 2 0 1 1 2 3 4 4 6 1 3 4 2 4 6 6 5 3 2 1 4 2 4 2 1 4 3 2 2 3 2 0 2 0 2 3 5 6 6 3 3 4 7 5 6 8 12 11 11 11 11 11 10 9 10 10 10 9 8 8 8 7 8 9 10 9 8 9 9 10 10 10 10 10 10 9 9 10 11 11 12 12 12 14 14 14 14 14 14 14 13 13 12 12 12 12
3 4 2 2 1 2 4 4 4 3 4 3 4 4 7 5 7 7 4 2 2 4 2 4 5 6 6 1 3 2 2 2 2 1 1 1 2 4 5 5 3 5 7 7 4 5 7 11 11 11 11 11 11 10 8 9 9 9 9 9 8 8 8 8 9 9 9 8 8 9 9 9 9 9 9 9 9 9 9 10 11 12 13 14 13 14 13 14 14 14 13 13 13 12 12 12 12
0 2 1 3 1 3 3 2 2 2 2 3 2 6 4 4 4 5 4 3 1 2 2 4 3 6 2 2 4 0 4 4 4 1 1 1 3 5 7 7 9 6 6 5 5 6 8 9 9 9 11 10 10 10 11 10 10 9 8 8 8 7 7 7 8 9 9 8 8 8 8 9 9 8 8 8 9 9 10 10 10 11 12 13 13 13 14 14 13 13 13 13 12 12 11 11 12
1 1 1 4 2 2 4 1 3 0 2 2 2 2 3 3 3 4 5 1 2 2 3 3 2 6 2 6 4 3 2 3 3 3 4 3 5 5 6 9 7 6 6 6 5 5 6 8 8 8 8 9 10 10 11 11 10 10 8 8 8 8 7 6 6 8 8 7 7 8 8 8 8 8 8 8 8 9 10 10 9 10 12 13 13 13 13 13 13 13 13 13 12 11 11 11 11
1 2 1 1 2 1 2 1 5 1 3 3 5 3 1 1 2 4 5 6 4 2 1 3 3 5 4 7 3 2 2 4 3 4 4 5 4 6 7 7 6 7 6 5 4 5 5 8 9 8 7 6 7 8 9 9 10 9 9 7 8 6 7 7 6 7 8 7 7 7 8 8 7 8 8 8 8 8 10 10 9 10 11 12 13 13 13 12 12 12 13 13 12 12 11 11 11
2 2 2 2 5 1 2 1 2 2 4 1 2 1 1 1 3 2 2 4 2 2 1 6 7 5 3 2 2 0 2 4 6 4 4 5 5 6 5 5 5 5 6 5 4 3 4 5 9 9 7 7 6 6 7 6 7 8 8 7 7 6 5 6 6 7 7 7 6 6 7 8 8 7 6 6 8 9 10 9 9 8 10 12 13 13 12 12 12 13 13 13 13 12 11 11 11
2 3 3 2 1 1 3 7 3 3 2 2 0 0 1 1 2 2 3 6 2 4 3 2 1 4 4 3 2 2 2 5 3 4 4 4 5 5 4 4 6 6 6 5 5 5 4 2 4 7 10 9 6 7 6 6 6 6 6 5 6 7 7 7 6 6 7 8 7 7 6 8 7 8 6 6 7 9 10 9 9 8 10 11 13 12 12 11 11 12 12 12 13 12 11 11 11
2 0 3 2 1 2 2 6 4 4 3 1 4 1 0 3 1 1 3 5 3 5 2 2 0 3 1 1 2 0 4 4 3 3 2 5 4 4 3 4 5 6 7 7 7 5 5 4 2 3 6 9 8 8 6 4 6 6 5 6 5 4 4 5 6 5 6 6 7 7 7 6 6 8 7 6 7 8 9 8 6 8 10 10 12 12 11 11 11 12 12 11 12 12 12 11 10
2 1 3 1 0 1 4 2 1 5 0 1 1 2 0 2 0 4 7 7 3 3 1 1 2 5 3 3 0 1 1 4 3 2 1 5 5 5 5 5 6 7 6 7 7 5 5 4 5 3 2 3 2 2 3 5 5 5 4 5 4 4 2 4 4 5 4 4 5 6 6 5 5 7 7 6 5 8 9 7 5 6 9 10 11 11 11 10 10 11 11 10 11 11 11 11 10
1 0 2 1 2 2 1 5 7 5 2 0 2 3 1 0 3 6 8 5 2 1 1 3 0 2 3 4 2 1 2 4 3 3 1 4 6 5 5 6 7 7 7 8 8 8 6 5 5 4 5 3 1 4 4 4 6 6 6 5 4 4 5 5 6 5 5 5 6 7 6 5 4 6 7 7 7 8 9 8 6 4 8 10 11 11 10 10 9 9 9 9 9 9 10 11 10
1 2 2 1 2 1 2 2 3 7 1 2 3 4 4 1 1 3 1 2 2 3 3 1 6 1 1 3 2 2 2 4 4 3 2 5 5 4 4 5 6 6 6 8 8 8 7 7 6 6 5 3 3 1 3 4 5 7 6 6 6 7 6 5 6 5 7 6 7 8 7 6 5 4 6 5 7 7 7 5 6 4 8 10 11 10 9 9 8 8 8 9 8 7 8 8 7
2 3 1 3 1 1 2 1 4 1 1 2 2 3 1 1 1 1 0 2 5 2 5 3 2 4 3 2 3 1 2 3 6 5 4 3 5 4 5 6 6 5 5 7 6 7 7 7 8 7 6 5 3 3 1 4 5 7 5 6 7 7 7 7 6 6 6 6 5 6 7 4 3 3 4 4 6 5 6 8 8 6 6 10 10 10 9 8 8 7 7 7 8 6 4 5 5
2 2 2 2 1 2 1 0 2 3 6 4 1 1 2 2 1 0 1 6 5 4 8 2 7 6 4 2 3 3 4 7 5 8 6 5 4 3 5 4 5 5 5 5 6 7 7 7 7 7 6 6 5 3 3 1 4 5 5 5 4 5 5 5 4 4 4 3 5 5 2 2 2 2 3 4 4 5 6 8 8 7 5 9 10 9 9 7 7 6 6 6 7 5 4 2 2
2 1 3 0 0 2 0 1 3 3 3 4 2 4 3 3 3 1 1 0 4 4 3 3 5 3 4 5 5 6 6 7 7 7 8 7 6 6 5 5 6 5 6 5 6 7 6 6 6 7 6 5 5 4 2 2 4 6 4 5 4 5 5 5 3 3 3 2 3 3 3 1 1 2 2 5 5 6 6 7 6 6 6 9 10 9 8 7 7 6 5 5 6 4 0 0 1
0 2 2 0 2 1 4 2 2 2 7 5 4 1 4 1 1 0 1 1 4 5 5 1 3 4 3 2 5 5 7 6 7 7 7 7 6 5 6 6 6 5 4 4 4 5 6 6 6 5 6 6 5 5 3 1 3 2 5 4 4 4 4 3 2 2 2 3 2 3 0 1 2 3 3 5 4 3 3 4 5 5 7 6 8 6 6 6 5 5 3 3 4 2 0 1 2
1 4 1 2 1 1 2 3 2 4 4 5 4 0 2 1 2 2 2 1 2 1 1 4 7 7 6 4 4 5 6 7 7 7 7 6 5 5 5 5 4 3 3 4 5 5 5 5 5 6 7 6 4 5 4 4 1 2 2 4 4 4 4 3 4 4 4 4 4 3 2 3 4 2 2 3 4 2 2 1 1 2 4 3 5 3 3 2 3 1 2 1 1 1 2 3 4
1 1 1 1 2 4 2 3 3 2 3 5 3 3 2 0 1 1 3 2 5 6 3 5 7 7 7 5 4 4 6 7 6 6 6 6 6 6 6 4 5 5 5 6 5 5 4 4 4 5 6 5 4 3 3 4 5 6 6 7 6 6 7 7 6 6 6 6 4 3 0 5 6 5 3 2 1 2 3 3 2 1 1 4 4 4 3 4 1 1 1 1 0 3 3 3 3
1 1 1 3 1 3 2 0 1 2 1 2 1 1 0 1 1 2 4 4 3 3 5 6 6 6 5 5 4 5 6 6 6 5 4 5 6 6 6 5 5 5 5 4 4 4 4 5 6 5 5 5 4 3 3 4 6 7 7 7 8 6 7 7 7 7 6 7 7 5 6 6 6 4 5 4 5 4 3 2 1 2 2 2 2 4 2 2 2 1 1 1 4 2 3 3 3
3 0 1 2 2 3 2 2 1 2 6 1 1 1 1 0 1 0 3 1 5 5 6 6 6 5 6 6 5 6 6 6 6 5 4 6 6 5 4 5 4 3 4 5 4 5 5 7 6 5 4 3 3 3 5 6 6 8 8 8 8 7 8 7 6 6 7 7 7 6 5 5 6 6 5 6 5 5 6 6 5 4 2 2 2 2 2 2 3 3 3 3 5 4 4 3 3
1 1 1 1 0 1 4 4 1 1 1 2 2 1 3 3 2 0 3 5 4 6 5 5 5 6 6 6 6 5 6 5 6 5 6 5 6 6 5 5 3 3 5 5 4 5 7 7 7 5 4 4 3 6 7 7 7 8 8 8 8 7 8 7 6 6 7 6 7 8 6 6 6 7 7 6 5 7 7 7 7 6 6 6 5 6 5 5 4 4 5 3 3 5 3 3 3
1 0 1 1 1 2 4 3 3 3 0 1 1 4 4 5 1 3 6 7 6 5 5 5 6 7 6 5 6 5 6 5 4 6 6 5 5 7 5 4 3 6 4 4 5 5 6 7 7 7 5 5 7 7 6 7 7 9 8 9 7 8 8 7 7 7 7 8 7 7 8 7 7 7 7 7 8 8 7 7 7 7 7 6 6 7 4 5 4 5 5 5 5 5 6 6 5
1 1 1 2 5 2 1 5 5 4 3 3 3 1 3 2 5 6 1 6 6 6 6 5 6 6 6 5 5 5 6 5 5 5 6 5 5 6 3 3 5 4 4 5 4 5 5 5 6 6 6 5 7 8 7 8 8 9 8 8 8 8 7 8 8 8 8 8 7 8 8 8 7 7 8 7 7 7 7 8 8 6 8 7 6 7 6 6 6 6 6 6 5 5 5 5 5
2 1 4 5 6 4 3 3 5 3 2 4 4 4 0 2 1 6 7 7 7 10 6 6 5 5 6 5 5 4 5 4 4 6 6 5 5 4 3 3 3 4 4 5 4 4 5 6 6 7 5 6 10 8 9 9 9 9 9 9 9 8 9 8 8 8 8 8 8 9 8 7 7 7 8 8 8 8 7 8 7 8 7 7 7 7 7 6 6 5 6 5 5 5 5 5 4
0 1 4 6 5 4 3 6 5 6 2 5 4 1 3 1 7 2 10 9 7 7 7 6 6 5 5 5 5 4 5 4 4 5 4 4 4 3 6 4 3 3 1 2 4 4 6 5 6 7 6 8 10 9 9 9 9 9 9 9 8 8 9 8 9 8 8 8 8 9 8 8 8 7 8 9 9 8 7 8 8 8 8 7 6 8 9 8 7 6 7 6 7 6 8 8 6
1 1 2 6 5 5 8 4 3 6 1 7 4 3 7 8 7 3 8 10 6 6 6 5 5 5 5 5 5 4 5 5 4 4 4 4 4 4 6 4 4 3 2 3 3 6 4 3 4 5 7 10 10 8 9 9 9 9 9 9 9 10 9 9 9 8 8 8 7 9 9 10 9 8 9 9 8 8 8 9 8 8 7 7 7 8 9 8 7 8 7 8 8 8 8 7 7
1 2 2 2 3 5 5 3 5 7 0 6 3 3 7 8 2 4 7 8 11 9 7 6 6 5 5 5 5 5 4 4 5 4 4 4 4 4 5 4 4 3 3 3 5 5 7 6 4 6 7 9 9 11 11 11 9 9 10 9 9 9 9 9 8 8 8 7 7 9 10 10 10 10 9 8 9 8 9 9 9 8 7 7 7 7 6 7 9 10 8 8 7 8 7 6 6
0 3 4 3 3 6 4 3 8 9 0 2 5 2 9 9 4 5 6 6 6 8 8 7 7 6 6 6 6 5 5 5 5 5 4 4 5 4 4 5 4 4 4 3 4 5 8 7 6 9 9 10 8 12 9 11 11 11 10 9 9 9 9 9 8 8 7 7 8 9 10 10 10 10 10 9 10 9 9 9 8 8 8 7 7 8 8 8 7 9 9 7 8 8 7 8 6
1 4 4 3 1 5 5 1 3 6 4 1 8 6 2 5 4 6 6 8 6 7 7 8 8 8 8 7 6 6 6 4 4 4 4 4 4 4 4 5 4 4 4 4 5 6 8 7 7 10 10 11 11 12 10 11 12 11 12 11 10 10 10 9 8 7 8 9 8 9 9 10 10 11 10 10 10 9 9 9 7 8 7 7 8 8 8 7 6 7 8 8 7 7 8 8 7
3 0 5 3 3 2 3 4 3 2 6 4 5 3 6 2 4 7 7 9 7 7 9 9 9 8 8 7 7 7 7 6 6 5 4 4 5 4 4 4 4 5 3 4 6 7 8 8 7 7 9 10 9 9 9 11 11 11 11 10 11 11 10 8 7 8 9 8 9 9 9 10 10 10 10 9 10 9 9 9 8 8 7 8 8 9 8 7 7 6 8 8 9 8 9 8 8
3 2 2 7 2 5 7 1 2 5 2 5 4 6 10 10 4 6 9 8 9 10 10 11 10 8 8 8 8 8 8 7 6 5 5 5 5 4 4 4 4 3 4 5 8 8 9 10 9 9 10 10 10 11 11 12 12 11 10 11 11 10 9 8 7 9 8 8 9 9 9 9 9 10 10 9 10 9 9 9 9 8 8 8 9 9 9 9 8 8 8 8 7 8 7 6 5
6 5 5 3 3 3 2 4 1 10 5 5 6 8 11 12 9 6 5 8 10 11 4 4 6 7 8 9 8 8 7 7 5 5 5 4 4 5 4 4 4 3 3 5 5 5 6 6 5 7 8 8 8 8 8 9 8 9 10 9 11 9 8 8 8 8 7 9 8 9 9 9 9 9 9 9 10 9 9 9 9 9 9 9 11 11 9 9 9 8 8 7 8 9 11 10 9
4 2 1 4 4 5 4 2 2 3 0 8 9 9 7 7 8 10 11 6 6 6 8 7 8 9 9 9 9 8 8 8 5 6 5 5 4 4 4 4 4 4 4 5 5 5 6 7 9 9 6 5 7 8 7 7 9 9 8 10 10 7 8 8 9 8 9 8 9 9 9 9 9 10 9 9 9 9 9 8 9 9 8 10 10 9 8 9 8 7 5 6 9 11 12 12 12
5 5 4 6 2 7 3 2 1 1 3 3 2 4 8 9 6 8 5 5 11 12 12 10 11 10 9 10 9 8 7 4 5 5 4 4 4 4 4 4 5 7 4 5 6 6 7 8 9 8 7 7 6 7 7 6 5 7 10 8 8 6 6 8 9 7 8 8 9 9 9 9 10 9 8 8 9 9 9 9 10 9 9 8 8 8 10 10 10 10 6 7 7 9 8 9 11
7 7 5 5 8 4 5 1 1 0 1 7 5 6 10 9 7 6 8 13 12 15 16 17 16 13 10 9 9 9 8 8 6 6 5 5 4 4 4 4 4 5 6 5 5 7 8 8 7 7 7 8 7 8 9 10 8 7 10 6 9 8 6 7 8 7 7 10 9 9 9 9 9 9 8 9 9 9 10 10 9 8 9 7 9 10 9 10 8 9 8 6 6 5 6 7 10
7 5 3 8 4 1 6 3 0 1 3 2 1 7 11 8 7 10 11 13 6 8 9 6 6 11 12 13 13 12 10 11 10 9 8 7 6 5 5 5 4 5 6 5 6 7 7 7 7 8 8 7 8 7 10 10 11 10 11 10 8 9 9 7 9 7 9 10 11 9 8 8 9 9 9 9 9 10 10 10 8 9 9 7 8 9 9 9 9 9 9 9 5 8 6 8 8
2 4 3 3 2 3 6 5 1 2 3 1 5 7 11 8 12 10 3 0 2 4 5 4 5 7 7 6 7 11 14 12 11 10 8 8 8 7 7 5 5 6 5 5 6 6 6 8 7 8 8 8 9 9 12 12 12 11 11 10 10 10 7 7 8 9 8 8 9 9 8 8 9 10 9 10 10 10 9 8 9 8 8 7 7 8 8 8 7 7 8 8 8 5 7 4 7
3 4 8 7 4 5 5 1 1 3 3 2 2 5 6 4 5 10 4 0 5 3 7 8 7 7 8 11 11 7 8 10 14 13 12 10 10 8 6 7 6 5 6 4 5 6 8 8 8 8 8 9 10 10 12 11 11 12 12 12 10 9 9 7 8 9 8 8 9 6 9 8 9 10 9 9 9 8 9 8 7 8 7 7 7 7 7 8 9 9 7 7 8 6 6 8 7
3 6 6 8 8 6 3 2 2 4 6 2 2 3 11 2 6 5 3 5 10 4 6 7 5 8 9 10 10 11 11 9 8 9 9 11 10 10 8 8 7 7 5 5 6 7 8 8 8 9 9 9 9 9 8 9 9 7 6 7 9 10 12 5 5 6 8 7 7 9 8 8 8 9 8 8 8 7 8 7 8 8 7 7 6 7 8 8 7 6 6 8 7 6 6 8 7
5 2 1 5 4 5 5 2 4 5 1 2 1 3 6 15 8 8 10 9 11 9 9 8 8 7 8 8 10 10 11 11 11 11 11 9 10 11 11 8 7 7 5 5 6 7 9 9 8 9 9 9 7 7 5 6 9 7 8 8 9 8 11 11 8 7 7 8 10 8 7 7 7 7 8 8 8 8 8 8 7 7 8 6 7 7 7 6 6 6 6 6 7 7 6 7 6
4 1 5 3 4 3 3 2 1 1 3 8 2 1 4 8 6 3 4 5 9 13 13 13 12 9 8 9 10 9 10 11 12 11 11 11 10 8 8 8 6 6 6 7 6 7 7 7 8 7 8 7 6 6 7 6 7 8 9 10 11 8 10 10 8 7 8 7 10 7 8 7 7 8 8 8 8 8 8 7 7 7 7 6 6 6 6 7 8 8 8 8 7 7 6 5 6
2 2 6 5 5 4 3 1 1 2 1 6 5 6 5 17 4 3 0 3 10 12 15 15 14 14 12 10 7 8 7 7 8 9 8 7 7 6 6 7 7 6 5 6 6 7 7 7 8 8 7 7 7 8 10 9 7 8 10 10 15 11 9 9 8 9 8 7 10 8 7 7 6 7 7 7 8 7 7 7 7 7 6 6 6 6 6 7 7 6 6 6 6 7 5 6 6
5 5 7 5 7 4 3 4 3 3 8 8 10 11 9 12 2 8 7 9 10 10 5 3 6 8 9 9 10 10 9 9 9 9 8 7 6 8 9 10 8 6 5 6 7 7 7 7 8 9 7 7 8 9 11 11 7 7 10 11 13 14 11 11 11 9 8 8 10 8 7 7 6 6 6 7 7 6 7 6 6 6 5 5 6 7 6 6 6 6 5 6 7 7 6 6 6
8 2 4 5 2 5 3 2 2 1 10 6 13 13 14 13 4 5 8 2 3 7 8 8 9 14 14 12 11 11 11 10 10 10 9 9 8 8 8 9 9 8 6 7 7 7 7 7 8 9 7 8 8 9 11 11 8 7 8 10 11 11 12 11 12 12 10 10 10 9 7 7 7 6 6 6 6 5 5 6 5 6 6 6 6 5 6 5 5 6 6 6 6 5 5 6 5
6 7 7 7 3 4 2 2 3 7 9 1 3 5 1 18 11 4 5 8 10 6 7 9 11 11 11 11 12 11 10 10 11 10 10 10 11 11 11 10 9 9 9 8 8 8 7 8 9 11 8 8 9 9 11 10 8 8 8 9 9 9 9 10 11 11 9 10 9 9 8 8 7 7 5 6 4 4 4 6 6 6 6 6 5 6 5 6 5 6 6 6 6 5 4 4 5
7 9 8 6 2 2 4 4 3 6 4 4 2 6 9 1 8 13 22 18 8 4 5 6 11 14 15 14 12 12 11 11 10 10 10 10 10 10 10 10 10 9 9 9 8 9 8 8 9 10 9 7 8 9 10 10 8 7 7 8 8 9 9 9 9 10 8 8 8 9 8 8 7 7 7 6 5 5 5 5 6 6 5 5 5 5 5 5 5 5 5 5 5 4 5 4 4
10 4 12 10 8 5 5 6 6 8 5 1 2 5 7 5 6 1 5 4 4 4 4 5 7 10 10 9 9 10 10 9 10 11 11 11 11 10 11 11 10 10 10 10 8 9 8 9 9 11 10 8 9 9 9 10 8 7 6 6 8 7 9 8 8 8 9 9 7 9 7 6 7 6 6 5 4 5 5 6 5 6 5 5 5 5 5 5 4 4 4 4 4 4 4 5 4
3 3 4 5 10 6 8 3 2 1 2 2 2 6 5 7 2 3 2 3 2 3 2 5 5 7 10 10 12 12 11 11 10 10 10 10 9 9 9 9 10 10 11 9 9 9 9 9 9 9 11 10 10 10 9 10 9 8 7 8 8 8 7 8 7 6 7 8 8 9 8 7 6 6 5 5 4 5 5 5 5 5 5 5 5 4 4 4 4 4 4 4 4 3 4 5 3
5 6 8 10 2 4 3 2 1 1 2 12 4 7 6 7 9 7 0 0 2 1 4 4 6 8 10 11 12 12 11 12 12 12 11 11 9 9 10 10 10 10 10 11 11 10 11 10 11 10 10 8 9 9 10 9 9 9 7 7 8 8 9 10 10 9 9 7 7 7 8 7 6 6 6 4 5 4 5 5 5 5 5 5 5 4 4 4 4 4 5 4 5 4 4 4 3
7 5 8 3 2 3 3 5 2 1 4 7 6 10 4 2 12 1 1 1 5 3 4 5 5 8 11 11 12 13 14 13 11 10 11 12 12 12 11 10 10 11 12 11 10 8 9 9 11 13 12 13 10 10 10 9 10 9 8 8 7 8 8 8 9 10 8 9 7 7 6 7 6 6 6 5 5 5 5 5 5 5 5 4 4 4 4 4 4 5 4 4 3 4 3 3 3
8 7 3 9 4 3 2 3 5 1 7 6 4 6 10 11 11 2 4 8 10 9 5 5 8 10 12 10 10 9 8 9 11 13 13 13 13 13 13 13 10 9 9 9 9 9 9 8 8 10 12 11 11 9 8 7 7 8 7 8 9 8 7 8 7 8 8 9 9 7 7 7 7 6 7 6 5 5 5 4 5 4 4 4 4 4 4 4 4 4 3 4 3 3 3 3 2
1 3 1 0 4 2 6 8 3 4 4 1 8 4 13 9 7 12 10 14 15 11 7 12 15 15 13 12 12 13 14 13 13 13 13 13 13 13 13 13 13 13 11 9 9 8 10 9 10 8 7 7 8 9 9 9 7 8 8 7 6 7 7 8 8 9 9 8 8 8 8 7 7 6 6 6 5 5 5 5 4 5 4 4 4 4 4 4 4 3 3 3 2 3 3 3 2
1 2 5 1 0 2 3 1 4 5 3 4 6 12 7 5 8 13 15 15 16 15 16 14 12 13 13 13 14 14 14 14 14 13 13 13 12 11 9 8 8 7 7 8 9 11 11 9 10 10 13 11 10 9 9 8 8 8 10 10 9 8 8 8 8 7 8 8 7 7 7 7 6 6 6 6 6 5 4 4 4 4 4 4 4 4 3 3 3 3 2 3 3 3 3 2 2
13 15 13 15 9 4 4 9 2 2 2 8 4 16 10 3 2 10 11 12 12 13 16 14 12 13 14 12 13 14 14 13 13 12 11 12 11 11 9 8 7 8 9 9 8 9 10 10 10 10 10 10 11 10 10 9 8 9 10 10 9 7 8 8 8 8 8 8 7 8 7 7 7 6 6 7 6 4 4 4 4 4 4 4 3 3 3 3 3 2 2 2 2 3 2 2 2
Wind_Direction
325 321 312 306 297 82 50 12 72 310 61 94 116 54 178 43 92 55 42 2 42 280 245 13 37 15 68 126 106 95 23 94 296 129 176 230 249 11 348 338 77 127 137 141 129 124 123 139 143 130 134 132 130 127 126 124 121 120 118 117 114 109 107 104 101 102 100 94 92 88 82 77 74 73 70 72 78 79 82 81 79 79 86 79 74 71 66 60 55 51 49 47 43 39 36 33 32
311 322 313 309 282 69 338 121 104 20 41 56 24 89 114 57 61 93 81 89 183 207 262 92 35 74 101 114 120 81 23 18 24 109 75 133 105 20 326 328 58 141 141 140 138 129 124 136 138 138 139 135 132 128 128 125 123 120 121 119 115 112 108 107 110 105 101 101 95 89 84 80 76 71 70 67 72 78 82 84 77 73 69 78 71 70 67 61 55 51 47 46 43 38 35 33 33
318 347 332 7 28 83 263 51 34 91 77 76 317 151 27 73 103 105 111 116 154 251 70 18 62 48 48 60 34 47 188 18 26 46 108 335 46 297 316 307 42 151 142 145 145 140 133 140 142 143 144 140 136 134 132 129 127 126 125 121 118 117 112 108 105 110 111 104 98 96 92 89 83 76 72 68 67 77 84 87 84 79 74 73 79 70 66 61 57 53 49 46 44 40 36 35 34
315 244 208 22 356 26 65 22 89 113 104 178 68 356 92 124 122 125 140 118 16 89 22 19 64 299 91 57 133 77 67 24 4 271 77 355 198 264 295 300 340 142 135 146 145 134 134 144 142 147 149 139 142 139 137 135 134 131 129 128 124 121 120 118 114 112 109 110 106 104 102 97 91 87 82 77 71 74 84 85 86 80 74 71 72 70 68 64 59 55 52 49 47 44 40 39 39
322 300 149 58 104 354 86 180 124 96 90 187 144 200 120 128 132 112 139 167 39 74 62 107 79 24 83 102 358 73 281 284 18 25 118 254 277 278 301 310 317 131 142 151 146 138 137 140 145 145 144 146 144 141 139 137 137 131 130 131 130 128 127 121 119 115 109 112 114 108 105 100 97 92 87 81 77 77 84 88 87 82 78 79 77 75 72 68 63 59 54 53 51 49 45 45 44
310 13 4 97 101 179 46 36 20 74 218 148 104 152 155 138 124 136 139 79 135 85 105 54 144 112 37 14 14 80 299 78 172 48 102 266 287 305 307 284 257 164 133 144 135 142 146 144 144 150 149 150 149 149 144 146 140 137 139 138 138 133 130 121 118 122 121 121 114 109 104 101 97 94 92 90 84 83 86 91 91 88 90 89 85 79 75 72 66 61 56 53 53 52 52 52 51
327 22 6 22 356 57 138 120 92 96 341 120 144 142 132 141 149 121 121 53 347 50 88 113 104 94 82 185 61 67 -0 276 69 329 106 243 301 340 337 26 88 58 100 116 111 116 130 138 143 144 145 151 152 152 151 141 147 144 146 145 143 143 137 134 128 129 131 127 116 110 105 102 97 93 96 94 93 91 91 93 92 92 95 96 91 81 77 72 67 62 58 54 52 52 52 55 56
101 92 309 82 291 56 48 131 107 168 31 83 165 121 130 131 122 107 164 100 254 81 351 124 99 95 295 83 119 0 9 38 95 83 81 51 28 9 26 32 54 53 61 83 94 101 107 115 129 132 140 146 149 154 152 149 160 149 151 151 149 146 145 139 139 136 133 130 125 118 110 106 105 102 101 99 93 90 89 94 98 93 95 93 86 82 77 74 69 64 59 56 53 53 53 53 54
352 86 354 67 22 21 74 102 110 108 121 52 53 145 129 124 130 143 95 138 133 73 25 18 100 82 185 62 83 136 25 359 42 45 49 47 47 28 36 41 50 51 60 72 85 87 89 94 102 122 131 140 152 158 155 157 154 152 154 161 153 151 146 141 140 135 135 134 131 126 121 117 116 115 110 107 102 98 104 103 98 100 98 95 90 83 78 75 70 66 63 58 55 54 56 54 52
18 93 324 124 124 63 75 39 76 194 144 184 120 102 78 355 34 91 128 73 127 90 352 44 91 112 126 101 108 -0 359 346 353 21 20 58 62 41 38 44 51 64 61 60 74 82 78 81 89 92 116 126 138 153 161 155 155 153 157 164 152 155 144 144 144 139 142 143 140 134 127 123 120 117 118 116 111 106 110 112 110 106 107 102 96 89 81 74 68 65 62 58 53 53 56 56 53
5 2 147 58 29 49 126 189 115 88 115 138 55 85 111 98 79 73 115 136 111 110 314 77 69 127 113 70 113 198 29 17 27 358 333 76 71 58 49 34 49 57 58 58 74 84 98 98 87 91 99 114 124 138 142 154 150 157 153 167 144 159 140 140 151 139 142 152 143 134 130 123 121 116 110 114 115 115 119 118 110 107 108 104 99 93 86 78 70 66 62 56 50 49 51 53 52
27 356 9 103 92 198 212 140 161 145 104 82 34 59 325 63 48 56 78 100 74 50 65 18 122 130 56 117 212 194 43 21 346 320 333 67 76 79 66 33 45 44 55 64 67 53 50 40 95 100 101 96 111 127 136 143 154 138 146 150 145 170 149 144 141 142 146 153 140 133 131 128 134 126 115 106 112 121 125 120 118 122 115 110 104 98 91 83 76 71 67 60 52 48 50 52 51
106 82 70 81 223 98 161 101 186 134 108 176 168 251 67 64 113 147 86 67 56 82 17 339 225 89 122 165 189 53 16 335 322 306 1 83 93 78 62 51 42 52 44 42 52 50 55 51 27 118 117 114 104 88 87 137 170 150 155 147 156 140 135 149 131 129 149 152 147 141 131 124 138 132 126 118 117 123 125 116 112 121 120 119 111 102 93 88 80 78 74 66 57 52 51 51 49
95 142 115 253 0 110 120 156 127 116 270 239 238 183 56 115 215 114 103 70 12 105 231 299 78 108 95 83 236 329 301 295 306 295 357 102 97 86 75 61 51 49 45 46 41 35 34 36 39 22 84 104 91 68 112 103 135 132 131 149 140 131 124 128 130 130 117 127 119 109 116 131 140 138 139 120 113 112 111 116 123 127 126 120 113 104 103 96 88 84 80 74 63 58 56 53 49
70 139 84 120 331 79 197 113 198 127 171 184 227 118 83 304 103 55 103 114 111 197 184 53 196 86 220 133 246 229 274 285 281 283 108 112 107 102 89 77 66 52 38 36 28 26 20 22 18 33 44 23 127 164 203 159 143 138 156 142 136 106 99 95 96 85 109 117 113 119 116 114 115 136 142 138 118 125 128 128 131 126 129 121 117 115 110 107 101 96 93 89 80 67 62 58 54
136 75 84 77 301 126 264 108 89 99 183 175 240 134 80 333 59 92 207 145 192 14 40 333 15 110 115 114 152 201 258 300 292 260 157 106 101 77 65 69 71 59 50 39 29 19 13 15 12 11 18 37 43 337 229 179 170 152 167 163 164 162 131 138 127 120 114 111 116 124 125 128 134 146 156 145 132 132 126 123 123 116 132 137 128 127 124 119 114 109 106 106 100 88 76 69 62
48 84 38 32 321 78 287 53 121 171 219 219 264 130 131 163 325 98 176 70 103 10 57 1 53 45 65 141 188 144 355 359 44 64 71 49 82 58 49 46 52 45 42 36 38 19 14 13 6 13 356 6 15 21 341 194 159 148 155 155 158 162 151 147 130 111 104 107 121 132 137 150 159 150 171 151 132 125 144 141 141 144 140 141 135 134 133 127 122 117 119 114 114 108 99 85 83
60 56 104 19 195 57 268 138 195 173 123 192 108 158 104 130 344 291 51 50 87 65 73 35 46 62 110 136 124 100 42 44 40 74 65 61 56 57 53 33 47 47 41 27 26 26 20 6 360 357 354 355 351 2 5 104 146 164 152 150 148 149 148 140 141 136 143 141 152 153 159 152 163 171 183 157 149 139 149 152 152 154 137 136 141 143 143 136 126 129 129 122 119 126 120 94 71
87 71 78 186 198 324 230 165 75 119 172 171 186 82 120 188 133 267 89 41 114 70 43 70 80 60 46 59 75 75 58 44 52 64 68 67 56 59 54 49 40 33 31 22 24 24 16 2 357 348 343 343 346 341 9 59 163 160 152 149 144 157 149 155 156 157 160 125 62 41 30 11 275 210 207 176 165 155 149 161 153 152 137 149 149 150 149 149 140 144 137 127 121 121 77 307 25
315 109 49 270 202 82 42 65 80 69 147 124 94 21 106 210 102 141 146 92 98 137 147 98 121 143 127 85 81 82 67 58 53 61 63 59 55 53 51 47 42 33 32 25 26 21 13 2 344 332 330 330 340 324 342 108 186 191 165 163 150 154 155 138 110 68 83 91 102 91 241 309 88 112 57 38 85 107 124 160 167 151 135 142 145 144 149 152 152 144 146 93 83 78 326 71 64
301 69 155 212 215 92 313 65 69 79 105 130 121 126 70 351 189 129 161 79 8 233 239 192 168 156 150 135 101 85 76 66 57 56 57 54 48 50 61 69 63 41 33 18 25 20 2 343 338 331 323 314 323 320 326 319 342 139 152 134 123 101 73 69 80 61 72 100 95 33 10 71 64 67 90 82 98 90 107 54 131 161 142 133 144 137 141 127 103 101 68 37 68 69 118 82 80
68 139 201 189 72 80 244 104 66 75 75 100 118 92 190 270 28 114 139 163 213 193 174 120 124 141 140 127 106 90 85 80 70 66 66 67 57 41 38 37 33 41 23 36 10 10 338 330 328 311 311 299 290 296 294 332 41 74 76 84 79 74 85 75 68 63 58 50 57 54 45 71 63 19 18 67 61 123 142 136 120 359 93 139 151 133 155 143 138 187 98 273 40 125 117 93 83
40 316 52 49 111 135 216 24 315 82 45 94 90 185 68 74 279 238 145 188 187 146 143 131 128 133 132 116 108 89 92 88 86 86 87 81 65 52 47 41 43 29 26 25 7 3 325 331 321 310 296 290 291 274 333 54 70 71 73 74 83 69 68 69 68 63 56 57 54 49 79 76 75 66 48 33 48 36 51 75 97 118 106 147 120 113 126 165 181 45 108 67 100 101 79 87 97
104 215 20 347 52 106 146 146 124 76 101 85 176 73 138 129 258 81 104 332 139 128 128 131 130 119 104 97 101 113 109 111 108 102 90 92 88 75 66 51 44 35 36 22 4 339 337 330 320 312 302 273 276 348 64 80 76 75 75 74 72 71 72 64 64 67 60 53 51 51 64 73 80 79 66 52 42 52 47 39 38 39 53 89 109 99 125 52 52 68 70 78 82 68 66 30 37
84 24 331 281 35 181 142 152 141 114 228 168 61 256 235 167 196 75 176 164 149 136 124 126 119 102 96 109 115 106 93 93 104 103 80 82 83 73 50 49 45 43 36 20 356 344 335 329 321 332 355 360 68 90 83 83 81 80 77 77 75 71 69 65 61 58 63 55 49 52 49 68 63 62 59 54 59 59 55 46 47 34 40 44 55 52 67 74 62 63 57 36 56 63 52 37 32
52 212 2 328 283 193 172 140 163 181 231 143 43 250 273 245 193 240 176 176 160 139 125 136 118 108 112 117 122 114 102 101 103 90 89 89 82 69 47 49 40 46 31 15 353 341 330 326 340 350 7 47 84 80 86 79 79 82 76 76 77 69 67 65 58 49 48 46 39 42 49 54 61 61 60 52 56 53 48 46 46 40 39 27 46 51 36 59 55 46 47 43 44 33 28 8 12
172 326 351 295 266 301 233 176 216 200 197 171 185 294 276 305 161 270 161 167 153 133 147 148 127 131 131 117 110 111 106 98 102 114 76 73 73 78 66 57 48 43 28 6 351 346 319 339 3 7 39 59 79 81 81 79 77 77 74 73 67 67 66 62 56 53 49 48 42 37 40 51 59 57 61 59 61 60 53 51 50 46 46 37 40 52 44 49 49 50 43 41 35 36 26 14 27
45 54 344 310 295 272 236 217 215 126 278 180 160 241 259 329 92 232 163 170 160 148 162 150 138 139 133 125 113 116 103 101 88 88 97 86 99 101 79 70 56 48 27 5 347 324 354 12 15 21 40 66 81 82 79 76 73 71 70 69 64 65 66 62 59 55 52 50 44 46 43 34 53 68 67 66 62 56 53 56 48 46 45 45 46 49 50 52 46 43 48 47 43 42 25 21 17
229 63 328 291 330 315 238 210 213 154 237 151 137 0 312 202 229 242 156 154 162 149 159 156 146 145 136 131 120 111 116 108 96 94 116 123 117 122 98 79 82 70 24 357 344 7 26 21 34 30 31 66 76 75 78 77 74 73 72 69 67 66 65 63 60 53 53 50 49 54 54 55 47 50 59 60 59 55 54 55 50 45 39 34 40 51 49 43 43 35 37 35 35 32 33 17 13
32 19 182 332 359 319 261 210 155 148 228 138 115 290 269 248 232 137 150 154 149 142 164 164 155 147 147 137 129 119 108 100 97 119 122 116 111 111 100 93 79 72 43 17 22 41 36 37 56 55 44 67 70 70 83 78 75 73 75 73 68 66 62 62 56 52 50 48 49 52 60 57 56 53 59 61 60 60 58 56 53 47 38 39 41 42 50 43 45 44 37 43 34 35 29 18 16
178 262 73 209 7 276 300 177 162 152 135 152 98 205 279 274 285 180 169 164 158 164 176 174 165 162 154 146 132 125 128 130 133 121 108 111 112 105 105 97 79 75 67 47 46 59 63 54 58 74 54 73 77 82 74 78 79 81 76 72 68 68 66 65 57 53 51 47 49 49 49 53 56 56 54 60 60 59 57 54 46 39 34 34 41 36 51 48 49 47 33 39 33 28 22 20 15
202 37 300 321 165 279 301 69 161 161 241 140 100 281 248 265 229 199 186 176 164 167 179 180 174 168 165 153 144 135 131 128 123 115 110 104 107 108 108 100 87 76 83 72 76 76 78 71 71 90 82 73 80 83 83 92 85 79 80 75 74 68 71 65 59 56 55 52 50 52 46 52 54 55 54 54 61 54 56 53 44 38 35 40 40 38 41 43 51 54 43 40 38 26 18 14 10
354 151 270 276 143 256 342 244 200 145 123 257 178 211 307 297 205 190 196 180 181 174 187 187 181 174 167 160 154 148 137 121 112 118 115 104 111 119 115 111 104 102 96 93 95 95 91 86 73 91 95 91 85 90 91 89 86 83 82 80 76 74 69 67 62 61 59 57 55 56 51 55 56 56 57 58 64 59 58 56 45 43 41 47 46 42 45 40 46 59 50 42 45 35 24 11 6
309 104 219 216 217 291 259 298 242 157 139 203 245 239 232 247 193 191 199 189 184 196 197 191 184 178 172 165 156 160 157 150 149 141 141 130 125 126 121 122 124 115 112 106 100 100 107 108 99 96 103 99 98 95 96 93 88 88 85 81 77 74 70 70 68 65 63 61 60 60 58 60 58 60 60 63 69 66 64 62 53 43 45 49 50 46 44 39 45 49 54 40 36 35 26 16 358
214 197 255 290 279 216 229 163 261 130 199 176 222 241 263 265 244 218 200 191 196 210 202 191 181 173 172 169 167 169 165 158 164 157 146 140 132 137 134 129 120 132 123 116 115 112 110 110 110 105 101 104 103 101 97 89 91 88 84 81 77 75 72 68 68 68 64 64 62 63 63 62 61 62 64 64 70 67 64 59 57 47 49 52 54 50 41 35 38 38 48 39 35 42 34 22 3
196 168 188 187 210 287 258 237 252 170 192 232 196 216 237 246 251 229 229 204 201 219 197 181 186 176 173 174 176 172 165 154 160 146 138 134 141 145 141 137 127 129 120 119 114 111 110 112 117 112 110 112 111 106 102 99 96 94 91 88 77 73 73 74 65 69 68 67 64 66 65 66 63 65 64 66 69 67 67 60 60 50 49 53 54 50 40 37 34 33 34 36 32 30 29 14 12
234 259 204 223 216 275 286 252 251 149 48 229 230 237 246 251 235 230 212 198 216 221 218 202 193 185 181 180 178 165 156 158 165 148 144 143 146 150 143 133 126 113 111 113 101 93 95 102 99 94 90 92 112 111 102 111 108 94 84 84 88 83 84 82 73 69 69 68 67 67 66 65 63 64 60 64 66 69 67 63 61 52 51 55 57 56 51 47 41 41 35 42 41 40 25 10 7
233 246 247 274 207 269 242 260 198 325 184 292 266 271 262 254 251 238 212 175 215 209 214 211 200 193 186 175 170 159 147 123 139 132 144 134 145 148 130 130 137 126 118 111 106 103 103 97 98 103 96 91 91 101 106 86 78 107 110 104 103 91 87 84 85 72 75 71 67 65 66 65 65 63 61 65 67 66 67 62 57 53 50 55 63 58 52 47 42 38 28 45 37 54 47 17 7
237 225 246 259 269 241 289 355 3 300 96 264 294 288 269 268 262 250 192 200 211 206 203 204 192 191 184 174 165 145 148 156 156 160 156 158 157 140 130 136 134 123 117 111 119 109 103 96 99 103 103 105 98 104 106 103 101 105 108 115 111 99 76 88 92 89 83 79 69 65 63 64 67 65 63 64 67 62 64 64 58 57 53 52 58 51 48 47 42 43 41 54 39 38 61 30 26
218 231 188 230 236 282 287 293 305 271 156 246 325 307 282 270 253 251 224 207 219 220 223 227 198 186 179 181 172 161 160 161 168 167 166 166 160 151 136 138 138 117 113 115 113 111 107 106 110 109 107 107 106 104 102 103 106 105 100 108 96 98 109 95 88 83 79 77 69 66 60 66 67 68 61 63 66 63 61 65 64 58 54 49 59 61 50 48 39 39 41 42 51 56 31 28 31
256 184 189 209 236 224 195 261 315 331 320 16 323 303 285 257 258 260 274 307 163 209 188 207 201 188 176 157 157 167 167 166 163 164 168 166 162 163 156 152 139 124 122 128 124 124 119 120 120 117 116 114 114 119 116 118 114 106 105 99 98 95 75 82 88 71 70 78 80 62 61 63 66 68 63 63 67 67 64 65 68 65 64 54 59 64 59 53 50 48 44 51 45 73 48 31 19
277 231 197 215 207 236 249 320 45 21 329 305 125 337 280 277 251 261 260 0 219 226 192 205 187 173 162 173 173 170 166 169 165 170 172 170 164 157 153 149 141 134 129 140 127 124 122 122 121 117 115 119 123 128 128 127 128 130 132 128 120 111 99 88 89 104 92 79 81 89 68 61 67 68 64 67 68 71 71 69 71 72 67 60 59 67 65 56 46 47 38 53 52 39 92 52 28
201 268 197 212 216 226 225 290 47 294 258 295 98 201 283 277 269 253 236 205 227 230 216 210 191 182 182 177 173 173 169 167 165 164 168 168 168 156 156 155 153 139 145 136 121 120 120 123 125 127 127 127 130 133 132 125 121 118 116 113 116 122 116 91 101 95 99 96 91 79 76 65 62 73 68 68 70 72 75 69 69 69 67 66 60 64 60 58 56 53 44 52 51 51 51 67 47
232 245 150 185 207 223 225 168 174 234 227 309 27 116 272 294 263 216 212 212 228 231 233 221 210 197 192 182 175 173 172 168 167 173 174 173 167 163 159 155 150 146 140 124 121 123 127 129 128 130 130 134 136 133 123 121 126 126 121 114 111 113 112 124 120 108 98 100 91 85 83 74 66 66 74 67 66 66 68 65 65 65 67 59 62 64 69 66 65 55 59 64 62 54 60 76 69
215 248 147 110 166 174 123 133 166 213 13 293 260 25 301 245 275 353 128 226 257 246 230 221 211 202 196 187 181 176 171 169 167 168 174 172 167 161 148 145 144 134 134 131 133 132 128 125 123 124 130 132 137 132 123 112 117 130 128 125 112 109 114 117 118 111 106 103 95 88 83 78 71 63 61 67 62 64 64 68 64 65 64 60 62 64 61 60 61 58 48 47 52 52 56 68 71
256 140 81 80 70 64 84 85 66 334 337 245 188 185 219 275 193 147 307 232 251 242 235 221 206 199 191 186 176 167 161 160 163 161 162 164 159 145 139 131 132 140 142 131 130 130 131 129 125 123 126 131 137 130 125 122 126 134 129 130 124 126 126 120 118 116 110 107 98 94 87 80 75 70 62 62 66 60 66 65 67 67 68 66 64 66 65 61 58 64 64 66 59 60 43 58 73
131 73 65 24 35 32 4 69 90 25 254 235 195 200 171 278 192 181 157 217 213 242 259 223 190 195 193 189 175 167 163 161 160 157 159 154 147 138 142 141 142 140 141 135 135 138 139 132 131 124 132 129 132 131 130 131 134 139 134 136 133 135 136 132 126 119 119 113 107 100 97 95 86 80 76 65 66 68 70 68 73 72 69 66 63 59 58 65 64 68 64 60 57 59 50 55 56
126 101 115 56 343 13 34 344 49 177 262 171 196 192 184 226 289 271 232 252 218 202 224 210 190 193 190 185 180 170 163 163 159 154 155 147 142 144 144 144 148 150 144 143 145 142 141 140 134 127 131 134 133 133 130 133 137 137 134 137 137 139 140 138 133 132 134 123 119 117 115 103 90 85 80 80 69 73 81 78 77 74 66 62 61 66 60 61 62 65 58 58 53 52 48 50 54
89 101 88 145 243 38 322 39 268 206 241 277 222 174 306 240 239 248 252 258 267 231 219 203 193 191 185 182 177 172 164 160 163 160 155 160 160 160 159 156 151 159 160 157 155 149 146 145 144 137 144 143 139 139 135 135 136 141 143 142 141 139 138 136 133 130 136 128 131 127 122 113 112 97 94 95 92 92 95 84 76 74 70 64 65 61 57 54 59 64 65 60 56 52 52 57 60
131 145 153 129 205 197 261 246 247 295 297 263 180 164 238 313 279 237 250 249 242 251 260 199 181 182 183 179 171 167 169 168 164 160 163 166 167 169 164 161 160 161 163 162 160 155 154 151 151 142 149 143 138 134 134 133 136 140 145 146 143 142 139 137 135 131 134 130 132 127 127 128 122 123 123 115 126 108 90 93 87 81 78 72 67 65 61 57 59 71 70 71 62 50 49 51 65
200 114 152 187 154 155 224 185 212 223 224 282 278 123 235 138 243 254 257 300 294 280 252 204 189 179 167 155 151 155 165 171 164 166 171 171 172 170 169 166 166 167 167 165 163 160 154 154 153 147 142 145 139 137 133 134 137 141 144 145 140 141 137 132 129 132 135 131 127 122 122 123 122 131 124 128 111 102 95 86 83 82 77 73 65 61 56 56 56 68 69 79 66 55 50 51 40
228 168 57 94 217 143 235 186 189 262 324 320 202 207 191 189 245 278 261 305 338 349 107 128 138 131 137 145 162 172 173 169 167 168 171 174 171 168 166 170 171 171 170 168 166 162 158 158 153 150 147 147 143 138 140 140 141 141 141 139 140 132 126 121 120 121 121 124 128 127 127 127 127 122 114 106 101 104 104 98 92 92 89 83 76 73 66 64 60 69 67 72 58 38 50 42 27
208 113 199 209 153 179 280 7 3 88 32 253 146 281 294 299 287 240 274 299 277 8 150 151 152 152 153 167 172 174 174 171 173 175 175 172 170 175 175 172 172 171 173 175 171 167 161 157 153 149 147 145 145 145 143 142 140 137 138 136 135 132 135 139 137 133 127 122 122 124 124 130 125 116 116 109 107 104 108 107 101 96 89 88 81 75 74 69 69 72 81 74 56 38 50 37 28
98 186 223 75 68 108 143 230 339 59 223 273 159 230 272 107 274 49 110 213 247 247 203 184 158 161 174 180 179 178 180 179 174 172 174 177 176 174 173 176 178 177 173 169 168 164 160 160 158 151 153 151 152 147 145 146 143 137 138 136 134 137 137 135 133 130 129 125 121 119 123 122 125 124 116 116 110 109 104 101 102 97 94 87 89 79 73 65 72 73 87 80 77 61 45 31 29
156 193 210 138 242 249 267 91 255 205 247 283 264 225 244 188 234 99 232 215 230 227 208 176 185 188 191 183 184 180 168 163 173 179 179 179 179 177 176 176 175 173 172 167 158 155 155 157 158 157 155 155 150 145 139 135 137 138 141 141 140 137 136 130 126 125 127 128 131 134 131 129 117 117 119 120 115 112 109 104 105 101 97 95 86 79 72 66 70 71 59 67 50 70 70 38 4
36 73 173 167 100 164 145 198 178 124 265 30 285 81 261 178 215 182 203 207 215 204 187 209 200 193 187 184 179 178 181 182 181 183 184 181 179 176 174 172 172 172 169 167 158 154 157 157 152 149 138 138 139 141 143 142 140 136 134 130 133 139 139 135 135 134 133 135 139 136 133 127 131 125 126 122 119 120 120 116 113 109 103 97 85 72 75 72 73 78 86 71 55 81 59 52 2
183 120 201 197 39 255 118 300 164 173 196 202 283 290 256 244 198 183 203 203 209 189 198 206 202 197 193 186 180 182 184 184 185 185 181 178 176 171 169 168 165 159 160 158 161 162 159 154 154 155 153 154 151 150 146 146 140 141 142 146 147 146 138 132 128 132 133 139 139 134 132 134 126 130 133 125 124 128 124 124 121 111 104 100 90 77 77 87 84 77 65 93 65 70 62 18 44
183 176 191 184 149 149 180 254 91 163 160 242 171 257 268 258 150 206 208 213 203 199 196 200 200 193 193 188 185 183 184 190 186 182 176 174 171 166 161 156 156 160 166 165 161 155 157 162 160 155 153 157 154 156 153 149 147 148 151 150 149 143 137 134 134 139 141 144 142 138 139 136 134 143 134 132 131 132 129 124 117 112 107 107 104 101 94 93 91 81 50 65 71 61 62 29 47